Skagway, AK

2:06 PM AKDT on April 29, 2017 (GMT -0800)
Skagway

Weather History for PAGY - December, 2012

Change the Weather History Date:

Tuesday, December 18, 2012

  Actual Average Record
Temperature  
Mean Temperature 8 °F -  
Max Temperature 10 °F 32 °F 48 °F (2004)
Min Temperature 7 °F 24 °F 6 °F (1992)
Degree Days  
Heating Degree Days 56    
Moisture  
Dew Point -6 °F    
Average Humidity 52    
Maximum Humidity 57    
Minimum Humidity 48    
Precipitation  
Precipitation 0.00 in - - ()
Sea Level Pressure  
Sea Level Pressure 29.65 in    
Wind  
Wind Speed 23 mph (NE)    
Max Wind Speed 40 mph    
Max Gust Speed 62 mph    
Visibility 7 miles    
Events Snow    
Averages and records for this station are not official NWS values.
T = Trace of Precipitation, MM = Missing Value Source: NWS Daily Summary

Daily Weather History Graph

Daily Weather History Graph

Search for Another Location

Airport or City:

Trip Planner

Search our weather history database for the weather conditions in past years. The results will help you decide how hot, cold, wet, or windy it might be!

Date:

Astronomy

Dec. 18, 2012 Rise Set
Actual Time 8:56 AM AKST 2:59 PM AKST
Civil Twilight 8:00 AM AKST 3:55 PM AKST
Nautical Twilight 7:05 AM AKST 4:51 PM AKST
Astronomical Twilight 6:14 AM AKST 5:42 PM AKST
Moon 11:12 AM AKST (12/18) 11:09 PM AKST (12/18)
Length of Visible Light 7h 55m
Length of Day
6h 03m
Waxing Crescent, 36% of the Moon is Illuminated
Dec 18
Waxing Crescent
Dec 19
First Quarter
Dec 28
Full
Jan 4
Last Quarter
Jan 11
New

Hourly Weather History & Observations

Time (AKST) Temp. Windchill Dew Point Humidity Pressure Visibility Wind Dir Wind Speed Gust Speed Precip Events Conditions
12:53 AM 8.1 °F -13.8 °F -8.0 °F 48% 29.83 in 10.0 mi NE 26.5 mph 38.0 mph N/A   Clear
1:53 AM 8.1 °F -10.2 °F -8.0 °F 48% 29.83 in 10.0 mi NE 17.3 mph 36.8 mph N/A   Clear
3:53 AM 8.1 °F -10.2 °F -8.0 °F 48% 29.81 in 10.0 mi NE 17.3 mph 27.6 mph N/A   Clear
4:53 AM 7.0 °F -13.1 °F -8.0 °F 51% 29.79 in 10.0 mi NE 20.7 mph 26.5 mph N/A   Clear
5:53 AM 8.1 °F -10.2 °F -7.1 °F 50% 29.78 in 10.0 mi NNE 17.3 mph 23.0 mph N/A   Clear
6:53 AM 8.1 °F -8.4 °F -5.1 °F 55% 29.76 in 10.0 mi NE 13.8 mph 28.8 mph N/A   Clear
7:53 AM 8.1 °F -6.2 °F -5.1 °F 55% 29.75 in 10.0 mi NNE 10.4 mph 21.9 mph N/A   Clear
8:53 AM 8.1 °F -3.2 °F -6.0 °F 53% 29.75 in 10.0 mi North 6.9 mph 23.0 mph N/A   Clear
9:53 AM 8.1 °F -4.3 °F -6.0 °F 53% 29.73 in 10.0 mi NNE 8.1 mph - N/A   Clear
10:53 AM 8.1 °F -7.7 °F -6.0 °F 53% 29.71 in 10.0 mi NNE 12.7 mph 21.9 mph N/A   Clear
11:53 AM 8.1 °F -10.2 °F -6.0 °F 53% 29.69 in 10.0 mi NE 17.3 mph 27.6 mph N/A   Clear
12:53 PM 10.0 °F -7.1 °F -4.0 °F 53% 29.68 in 10.0 mi NNE 16.1 mph 20.7 mph N/A   Mostly Cloudy
1:53 PM 10.0 °F -9.5 °F -5.1 °F 51% 29.65 in 10.0 mi NE 21.9 mph 26.5 mph N/A   Overcast
2:53 PM 10.0 °F -9.1 °F -4.0 °F 53% 29.62 in 10.0 mi NE 20.7 mph 28.8 mph N/A   Overcast
3:53 PM 10.0 °F -8.1 °F -4.0 °F 53% 29.61 in 10.0 mi NNE 18.4 mph 31.1 mph N/A   Overcast
4:53 PM 9.0 °F -12.6 °F -5.1 °F 53% 29.59 in 10.0 mi NE 26.5 mph 33.4 mph N/A   Scattered Clouds
5:53 PM 9.0 °F -11.8 °F -4.0 °F 56% 29.58 in 6.0 mi NE 24.2 mph 39.1 mph 0.00 in   Clear
6:53 PM 9.0 °F -13.7 °F -6.0 °F 51% 29.57 in 7.0 mi NE 29.9 mph 41.4 mph 0.00 in   Clear
7:53 PM 9.0 °F -14.0 °F -5.1 °F 53% 29.56 in 4.0 mi NE 31.1 mph 43.7 mph 0.00 in   Clear
8:53 PM 9.0 °F -15.5 °F -5.1 °F 53% 29.55 in 4.0 mi NE 36.8 mph 44.9 mph 0.00 in Snow Blowing Snow
9:10 PM 8.6 °F -15.1 °F -4.0 °F 57% 29.56 in 2.0 mi NE 33.4 mph 49.5 mph 0.00 in Snow Blowing Snow
9:53 PM 8.1 °F -17.6 °F -5.1 °F 55% 29.56 in 2.5 mi NE 40.3 mph 49.5 mph 0.00 in   Partly Cloudy
10:07 PM 8.6 °F -16.0 °F -5.8 °F 52% 29.55 in 1.8 mi NE 36.8 mph 55.2 mph 0.00 in Snow Light Snow
10:16 PM 8.6 °F -16.0 °F -5.8 °F 52% 29.55 in 2.5 mi NE 36.8 mph 55.2 mph 0.00 in Snow Light Snow
10:53 PM 7.0 °F -19.1 °F -7.1 °F 53% 29.56 in 2.5 mi NE 40.3 mph 51.8 mph 0.00 in Snow Light Snow
11:20 PM 8.6 °F -16.3 °F -5.8 °F 52% 29.56 in 1.8 mi NE 38.0 mph 56.4 mph 0.00 in   Partly Cloudy
11:29 PM 8.6 °F -15.7 °F -7.6 °F 48% 29.57 in 3.0 mi NE 35.7 mph 51.8 mph 0.00 in Snow Blowing Snow
11:47 PM 8.6 °F -14.8 °F -5.8 °F 52% 29.58 in 1.8 mi NNE 32.2 mph 62.1 mph 0.00 in Snow Light Snow
11:48 PM 8.1 °F -14.5 °F -6.0 °F 53% 29.57 in 1.8 mi NE 28.8 mph 62.1 mph 0.00 in Snow Light Snow